DW2607 Weather Reports


time (UTC)temp
F
wind
direction
speed
knots
gust
knots
rain 1hr
in
rain 24hr
in
rain mn
in
humidity
%
barometer
mb
20260505093517 53 0.0 1.7 0.00 0.00 0.00 89 1011.2
20260505092517 53 0.0 1.7 0.00 0.00 0.00 89 1011.1
20260505091518 53 0.0 1.7 0.00 0.00 0.00 89 1011.0
20260505090521 54 0.0 0.9 0.00 0.00 0.00 88 1011.0
20260505085519 54 0.0 0.0 0.00 0.00 0.00 88 1010.9
20260505084537 54 0.0 0.0 0.00 0.00 0.00 88 1010.8
20260505083516 54 0.0 0.0 0.00 0.00 0.00 87 1010.8
20260505082518 54 0.0 0.0 0.00 0.00 0.00 86 1010.8
20260505081518 55 0.0 1.7 0.00 0.00 0.00 86 1010.7
20260505080522 55 0.0 1.7 0.00 0.00 0.00 86 1010.7
20260505075523 55 0.0 1.7 0.00 0.00 0.00 85 1010.7
20260505074539 56 0.0 0.0 0.00 0.00 0.00 85 1010.6
20260505073540 56 0.0 1.7 0.00 0.00 0.00 84 1010.6
20260505072801 56 0.0 0.0 0.00 0.00 0.00 84 1010.4
20260505071518 56 0.0 1.7 0.00 0.00 0.00 83 1010.3
20260505070538 57 0.0 1.7 0.00 0.00 0.00 83 1010.2
20260505065518 57 0.0 1.7 0.00 0.00 0.00 82 1010.1
20260505064538 57 0.0 0.9 0.00 0.00 0.00 81 1010.0
20260505063516 58 0.0 1.7 0.00 0.00 0.00 80 1009.9
20260505062517 58 0.0 1.7 0.00 0.00 0.00 80 1009.9
20260505061522 59 0.0 1.7 0.00 0.00 0.00 79 1009.7
20260505060517 60 0.0 0.0 0.00 0.00 0.00 78 1009.5
20260505055516 60 0.0 0.0 0.00 0.00 0.00 77 1009.4
20260505054516 61 0.0 0.0 0.00 0.00 0.00 77 1009.3
20260505053518 61 0.0 0.0 0.00 0.00 0.00 76 1009.2
20260505052518 62 0.0 0.0 0.00 0.00 0.00 74 1009.3
20260505051519 62 0.0 0.0 0.00 0.00 0.00 74 1009.1
20260505050518 63 0.0 0.0 0.00 0.00 0.00 72 1009.1
20260505041518 66 0.0 0.0 0.00 0.00 0.00 61 1008.6
20260505040518 66 0.0 0.0 0.00 0.00 0.00 61 1008.5
20260505035519 67 0.0 0.0 0.00 0.00 0.00 59 1008.4
20260505034520 67 0.0 0.0 0.00 0.00 0.00 57 1008.3
20260505033518 68 0.0 0.0 0.00 0.00 0.00 55 1008.1
20260505032520 69 0.0 0.0 0.00 0.00 0.00 55 1008.0
20260505031520 70 0.0 1.7 0.00 0.00 0.00 52 1008.0
20260505030518 70 0.0 0.0 0.00 0.00 0.00 50 1007.8
20260505025558 71 0.0 0.0 0.00 0.00 0.00 49 1007.8
20260505024518 72 0.0 0.0 0.00 0.00 0.00 48 1007.8
20260505023516 72 0.0 0.9 0.00 0.00 0.00 48 1007.7
20260505022518 73 0.0 1.7 0.00 0.00 0.00 48 1007.6
20260505021518 74 0 0.9 2.6 0.00 0.00 0.00 47 1007.7
20260505020540 75 0 1.7 3.5 0.00 0.00 0.00 46 1007.8
20260505015518 76 0.0 1.7 0.00 0.00 0.00 47 1007.6
20260505014518 77 0.0 1.7 0.00 0.00 0.00 48 1007.7
20260505013520 78 0.0 0.0 0.00 0.00 0.00 47 1007.6
20260505012518 78 0.0 1.7 0.00 0.00 0.00 48 1007.6
20260505011518 78 0.0 1.7 0.00 0.00 0.00 47 1007.7
20260505010519 79 0.0 1.7 0.00 0.00 0.00 45 1007.7
20260505005520 78 0.0 1.7 0.00 0.00 0.00 45 1007.7
20260505004518 79 0.0 1.7 0.00 0.00 0.00 42 1007.8
20260505003518 80 0.0 1.7 0.00 0.00 0.00 41 1007.7
20260505002519 81 0.0 1.7 0.00 0.00 0.00 40 1007.8
20260505001518 80 0.0 1.7 0.00 0.00 0.00 42 1007.8
20260505000518 80 0.0 2.6 0.00 0.00 0.00 40 1007.8
20260504235519 82 0.0 1.7 0.00 0.00 0.00 38 1007.8
20260504234539 83 0.0 1.7 0.00 0.00 0.00 38 1007.9
20260504233518 82 180 0.9 3.5 0.00 0.00 0.00 38 1007.9
20260504232518 82 0.0 1.7 0.00 0.00 0.00 38 1007.8
20260504231519 80 0.0 1.7 0.00 0.00 0.00 40 1007.9
20260504230518 79 270 0.9 4.3 0.00 0.00 0.00 41 1007.9
20260504225603 79 0.0 1.7 0.00 0.00 0.00 41 1008.1
20260504224519 79 158 0.9 4.3 0.00 0.00 0.00 42 1008.1
20260504223517 79 0.0 1.7 0.00 0.00 0.00 42 1008.2
20260504222518 78 0.0 1.7 0.00 0.00 0.00 41 1008.4
20260504221518 79 203 0.9 2.6 0.00 0.00 0.00 42 1008.4
20260504220518 79 0.0 1.7 0.00 0.00 0.00 41 1008.6
20260504215519 79 158 1.7 5.2 0.00 0.00 0.00 42 1008.6
20260504214538 78 0.0 1.7 0.00 0.00 0.00 41 1008.7
20260504213539 78 0.0 2.6 0.00 0.00 0.00 42 1008.8
20260504212519 78 0.0 1.7 0.00 0.00 0.00 42 1008.9
20260504211539 77 0.0 1.7 0.00 0.00 0.00 43 1008.9
20260504210538 77 180 0.9 1.7 0.00 0.00 0.00 45 1009.0
20260504205539 78 180 0.9 2.6 0.00 0.00 0.00 43 1009.1
20260504204518 78 0.0 0.9 0.00 0.00 0.00 45 1009.0
20260504203517 78 158 0.9 3.5 0.00 0.00 0.00 46 1009.0
20260504202518 78 180 0.9 2.6 0.00 0.00 0.00 45 1009.0
20260504201518 77 0.0 1.7 0.00 0.00 0.00 48 1009.0
20260504200517 77 0.0 1.7 0.00 0.00 0.00 46 1009.0
20260504195517 77 158 0.9 1.7 0.00 0.00 0.00 45 1008.9
20260504194519 77 158 0.9 1.7 0.00 0.00 0.00 47 1009.0
20260504193519 77 158 0.9 1.7 0.00 0.00 0.00 46 1009.1
20260504192518 78 0.0 1.7 0.00 0.00 0.00 45 1009.2
20260504191517 78 135 0.9 2.6 0.00 0.00 0.00 46 1009.3
20260504190538 77 113 0.9 3.5 0.00 0.00 0.00 43 1009.5
20260504185517 77 135 0.9 1.7 0.00 0.00 0.00 45 1009.5
20260504184518 77 113 0.9 2.6 0.00 0.00 0.00 46 1009.4
20260504183518 77 0.0 1.7 0.00 0.00 0.00 45 1009.4
20260504182539 76 135 0.9 2.6 0.00 0.00 0.00 42 1009.4
20260504181519 75 0.0 0.9 0.00 0.00 0.00 44 1009.4
20260504180519 75 45 0.9 2.6 0.00 0.00 0.00 44 1009.5
20260504175539 74 90 0.9 2.6 0.00 0.00 0.00 41 1009.5
20260504174517 74 113 0.9 3.5 0.00 0.00 0.00 40 1009.5
20260504173519 74 135 0.9 3.5 0.00 0.00 0.00 41 1009.5
20260504172517 72 45 0.9 5.2 0.00 0.00 0.00 45 1009.6
20260504171518 72 158 0.9 4.3 0.00 0.00 0.00 45 1009.5
20260504170517 71 135 1.7 3.5 0.00 0.00 0.00 48 1009.5
20260504150517 62 0.0 0.0 0.00 0.00 0.00 65 1008.8
20260504140517 58 0.0 0.0 0.00 0.00 0.00 73 1008.5
20260504130518 56 0.0 0.0 0.00 0.00 0.00 73 1008.2
20260504110517 61 0.0 0.0 0.00 0.00 0.00 54 1008.1
20260504100537 62 0.0 0.0 0.00 0.00 0.00 49 1008.1